Location: ??????
(30.5519°N, 47.7720°E)
Time: 07:14:34
(UTC+00:00)

N. Korean satellite - Visible Passes

Search period start: 23 April 2021 00:00
Search period end: 03 May 2021 00:00
Orbit: 452 x 499 km, 97.2° (Epoch: 22 April)

Date Brightness Start Highest point End Pass type
(mag) Time Alt. Az. Time Alt. Az. Time Alt. Az.
23 Apr 9.6 01:17:02 10° ENE 01:19:08 15° E 01:21:12 10° SE visible
26 Apr 9.2 01:28:34 10° NE 01:31:21 22° E 01:34:05 10° SSE visible
29 Apr 8.4 01:40:20 10° NNE 01:43:30 33° E 01:46:36 10° SSE visible
30 Apr 9.6 01:14:32 10° ENE 01:16:20 14° E 01:18:07 10° SE visible
